1505138400.11,28102,16.31,73494.5,7.55,6.03,6.07,0,*77
1505138401.3,28103,16.31,73494.3,7.55,6.03,6.07,0,*76
1505138402.51,28104,16.31,73492.5,7.55,6.17,6.21,0,*70
1505138403.7,28105,16.31,73498.5,7.55,6.29,6.21,0,*7C
1505138404.89,28106,16.31,73492.5,7.55,6.29,6.33,0,*7C
1505138406.07,28107,16.31,73494.5,7.55,6.21,6.21,0,*76
1505138407.29,28108,16.31,73488.3,7.57,6.25,6.33,0,*7C
1505138408.55,28109,16.31,73492.8,7.57,6.47,6.43,0,*7E
1505138409.78,28110,16.31,73492.0,7.55,6.43,6.51,0,*73
1505138411.01,28111,16.31,73496.3,7.55,6.53,6.61,0,*70
1505138412.26,28112,16.31,73494.8,7.57,6.65,6.65,0,*70
1505138413.48,28113,16.31,73496.8,7.55,6.53,6.61,0,*72
1505138414.74,28114,16.31,73494.8,7.57,6.65,6.65,0,*76
1505138415.98,28115,16.31,73498.8,7.57,6.53,6.57,0,*73
1505138417.24,28116,16.31,73496.5,7.57,6.43,6.43,0,*74
1505138418.42,28117,16.31,73502.3,7.59,6.29,6.29,0,*7B
1505138419.65,28118,16.31,73496.8,7.59,6.39,6.39,0,*74
1505138420.87,28119,16.31,73494.3,7.59,6.51,6.57,0,*73
1505138422.1,28120,16.31,73494.0,7.59,6.51,6.61,0,*7C
1505138423.32,28121,16.31,73494.0,7.59,6.57,6.57,0,*7E
1505138424.55,28122,16.31,73494.3,7.59,6.51,6.57,0,*7B
1505138425.8,28123,16.31,73492.3,7.61,6.51,6.57,0,*71
1505138427.03,28124,16.31,73496.0,7.59,6.51,6.61,0,*78
1505138428.27,28125,16.31,73498.0,7.59,6.47,6.47,0,*7A
1505138429.5,28126,16.31,73496.0,7.59,6.39,6.35,0,*75
1505138430.69,28127,16.31,73494.8,7.59,6.25,6.25,0,*78
1505138431.87,28128,16.31,73496.5,7.59,6.25,6.25,0,*77
1505138433.13,28129,16.31,73492.3,7.61,6.35,6.39,0,*71
1505138434.38,28130,16.31,73492.0,7.61,6.57,6.57,0,*75
1505138435.64,28131,16.31,73498.3,7.61,6.35,6.39,0,*78
1505138436.82,28132,16.31,73496.5,7.59,6.29,6.29,0,*7C
1505138438.0,28133,16.31,73492.8,7.59,6.29,6.29,0,*7D
1505138439.27,28134,16.31,73492.8,7.61,6.51,6.51,0,*71
1505138440.5,28135,16.31,73492.3,7.59,6.39,6.39,0,*7B
1505138441.71,28136,16.31,73492.3,7.61,6.29,6.29,0,*73
1505138442.89,28137,16.31,73492.0,7.59,6.25,6.29,0,*75
1505138444.12,28138,16.31,73498.5,7.61,6.35,6.29,0,*70
1505138445.39,28139,16.31,73496.8,7.61,6.47,6.47,0,*7C
1505138446.64,28140,16.31,73496.8,7.61,6.51,6.61,0,*71
1505138447.87,28141,16.31,73498.3,7.59,6.51,6.57,0,*7E
1505138449.13,28142,16.31,73498.0,7.61,6.51,6.57,0,*76
1505138450.38,28143,16.31,73492.0,7.61,6.39,6.39,0,*71
1505138451.64,28144,16.31,73494.3,7.61,6.35,6.39,0,*7A
1505138452.89,28145,16.31,73492.3,7.61,6.57,6.57,0,*77
1505138454.12,28146,16.31,73498.3,7.59,6.39,6.47,0,*76
1505138455.36,28147,16.31,73498.5,7.61,6.29,6.35,0,*78
1505138456.59,28148,16.31,73502.3,7.61,6.17,6.25,0,*7B
1505138457.83,28149,16.31,73506.5,7.59,6.35,6.35,0,*70
1505138459.08,28150,16.31,73500.8,7.61,6.57,6.61,0,*76
1505138460.26,28151,16.31,73496.5,7.59,6.29,6.29,0,*79
1505138461.49,28152,16.31,73496.0,7.61,6.11,6.17,0,*77
1505138462.75,28153,16.31,73500.5,7.61,6.13,6.17,0,*74
1505138463.96,28154,16.31,73502.5,7.61,6.25,6.29,0,*7B
1505138465.22,28155,16.31,73496.8,7.61,6.35,6.47,0,*73
1505138466.46,28156,16.31,73498.3,7.59,6.35,6.39,0,*72
1505138467.72,28157,16.31,73494.0,7.61,6.39,6.47,0,*7D
1505138468.98,28158,16.31,73486.5,7.61,6.47,6.47,0,*7B
1505138470.24,28159,16.31,73486.3,7.61,6.39,6.39,0,*7A
1505138471.49,28160,16.31,73486.3,7.61,6.57,6.61,0,*75
1505138472.74,28161,16.31,73486.3,7.61,6.73,6.73,0,*71
1505138473.91,28162,16.31,73484.8,7.63,6.83,6.83,0,*70
1505138475.17,28163,16.31,73488.8,7.61,6.47,6.39,0,*7A
1505138476.43,28164,16.31,73488.8,7.61,6.51,6.51,0,*74
1505138477.68,28165,16.31,73488.5,7.61,6.69,6.69,0,*75
1505138478.94,28166,16.31,73488.0,7.61,6.47,6.39,0,*7F
1505138480.14,28167,16.31,73488.5,7.63,6.33,6.39,0,*7F
1505138481.37,28168,16.31,73490.0,7.63,6.43,6.43,0,*7A
1505138482.64,28169,16.31,73488.0,7.61,6.51,6.51,0,*79
1505138483.89,28170,16.31,73488.3,7.61,6.39,6.39,0,*71
1505138485.14,28171,16.31,73494.0,7.61,6.61,6.69,0,*78
1505138486.39,28172,16.31,73496.5,7.61,6.61,6.61,0,*73
1505138487.62,28173,16.31,73486.0,7.63,6.65,6.73,0,*77
1505138488.83,28174,16.31,73484.0,7.63,6.33,6.43,0,*70
1505138490.01,28175,16.31,73484.5,7.63,6.33,6.33,0,*76
1505138491.19,28176,16.31,73484.8,7.63,6.21,6.21,0,*75
1505138492.37,28177,16.31,73484.3,7.63,6.21,6.29,0,*7C
1505138493.6,28178,16.31,73490.5,7.63,6.17,6.17,0,*7B
1505138494.81,28179,16.31,73494.8,7.61,6.25,6.25,0,*78
1505138496.08,28180,16.31,73490.8,7.61,6.35,6.47,0,*7B
1505138497.34,28181,16.31,73494.8,7.61,6.47,6.51,0,*78
1505138498.61,28182,16.31,73496.5,7.61,6.35,6.35,0,*7C
1505138499.87,28183,16.31,73492.5,7.61,6.47,6.47,0,*7D
1505138501.05,28184,16.31,73498.0,7.63,6.21,6.29,0,*70
1505138502.23,28185,16.31,73498.5,7.59,6.25,6.29,0,*7C
1505138503.41,28186,16.31,73496.5,7.59,6.29,6.29,0,*73
1505138504.6,28187,16.31,73498.8,7.59,6.29,6.25,0,*7E
1505138505.78,28188,16.31,73490.5,7.63,6.29,6.33,0,*7F
1505138506.99,28189,16.31,73498.8,7.61,6.29,6.29,0,*77
1505138508.26,28190,16.31,73500.3,7.61,6.51,6.51,0,*7F
1505138509.52,28191,16.31,73506.5,7.61,6.57,6.51,0,*78
1505138510.76,28192,16.31,73502.3,7.61,6.57,6.57,0,*7D
1505138512.02,28193,16.31,73506.5,7.61,6.39,6.51,0,*72
1505138513.23,28194,16.31,73502.3,7.61,6.25,6.25,0,*7B
1505138514.44,28195,16.31,73504.8,7.61,6.25,6.25,0,*7A
1505138515.67,28196,16.31,73506.0,7.63,6.43,6.39,0,*76
1505138516.88,28197,16.31,73500.0,7.61,6.25,6.25,0,*78
1505138518.1,28198,16.31,73498.3,7.61,6.25,6.25,0,*77
1505138519.31,28199,16.31,73496.5,7.61,6.11,6.03,0,*75
1505138520.52,28200,16.31,73498.8,7.61,5.99,5.99,0,*75
1505138521.7,28201,16.31,73496.0,7.59,5.99,6.03,0,*7F
1505138522.91,28202,16.31,73488.5,7.61,6.11,6.03,0,*74
1505138524.13,28203,16.31,73486.5,7.61,6.03,6.11,0,*75
1505138525.33,28204,16.31,73486.3,7.59,6.11,6.13,0,*78
1505138526.53,28205,16.31,73486.5,7.59,6.03,6.13,0,*7A
1505138527.72,28206,16.31,73478.5,7.59,6.25,6.25,0,*78
1505138528.95,28207,16.31,73482.5,7.57,6.33,6.43,0,*70
1505138530.19,28208,16.31,73482.3,7.59,6.51,6.51,0,*76
1505138531.41,28209,16.31,73482.0,7.59,6.57,6.69,0,*7A
1505138532.65,28210,16.31,73486.5,7.59,6.51,6.51,0,*7F
1505138533.89,28211,16.31,73484.5,7.59,6.47,6.47,0,*7E
1505138535.15,28212,16.31,73490.0,7.61,6.39,6.47,0,*7F
1505138536.38,28213,16.31,73488.3,7.59,6.39,6.47,0,*75
1505138537.62,28214,16.31,73490.5,7.59,6.47,6.47,0,*7B
1505138538.88,28215,16.31,73492.5,7.61,6.39,6.35,0,*7D
1505138540.14,28216,16.31,73494.3,7.61,6.39,6.35,0,*7E
1505138541.39,28217,16.31,73494.5,7.61,6.39,6.39,0,*73
1505138542.65,28218,16.31,73496.5,7.61,6.39,6.47,0,*75
1505138543.91,28219,16.31,73502.3,7.61,6.39,6.47,0,*74
1505138545.16,28220,16.31,73500.5,7.61,6.57,6.57,0,*77
1505138546.4,28221,16.31,73496.5,7.59,6.47,6.47,0,*7D
1505138547.63,28222,16.31,73496.8,7.61,6.25,6.17,0,*74
1505138548.85,28223,16.31,73500.0,7.59,6.57,6.57,0,*7F
1505138550.08,28224,16.31,73502.5,7.59,6.47,6.57,0,*79
1505138551.32,28225,16.31,73500.0,7.61,6.29,6.35,0,*7F
1505138552.53,28226,16.31,73500.8,7.59,6.29,6.35,0,*77
1505138553.74,28227,16.31,73514.0,7.61,6.25,6.29,0,*7C
1505138554.95,28228,16.31,73508.0,7.61,6.03,6.11,0,*7C
1505138556.22,28229,16.31,73506.3,7.61,6.35,6.35,0,*7E
1505138557.47,28230,16.31,73488.0,7.61,6.17,6.17,0,*76
1505138558.68,28231,16.31,73480.5,7.61,6.25,6.25,0,*77
1505138559.87,28232,16.31,73486.3,7.59,6.29,6.29,0,*7F
1505138561.1,28233,16.31,73486.5,7.61,6.25,6.17,0,*74
1505138562.31,28234,16.31,73484.8,7.59,6.29,6.35,0,*74
1505138563.5,28235,16.31,73486.8,7.59,6.29,6.29,0,*78
1505138564.7,28236,16.31,73486.3,7.59,6.11,6.13,0,*79
1505138565.9,28237,16.31,73490.3,7.59,6.29,6.39,0,*7B
1505138567.09,28238,16.31,73490.8,7.59,6.29,6.29,0,*75
1505138568.27,28239,16.31,73490.3,7.59,6.25,6.29,0,*78
1505138569.5,28240,16.31,73490.8,7.59,6.39,6.47,0,*73
1505138570.74,28241,16.31,73492.8,7.59,6.51,6.51,0,*7B
1505138571.96,28242,16.31,73494.5,7.59,6.47,6.57,0,*79
1505138573.22,28243,16.31,73490.0,7.61,6.39,6.47,0,*7B
1505138574.46,28244,16.31,73496.8,7.59,6.47,6.47,0,*7E
1505138575.72,28245,16.31,73494.5,7.61,6.47,6.47,0,*74
1505138576.94,28246,16.31,73498.0,7.59,6.69,6.61,0,*74
1505138578.19,28247,16.31,73500.0,7.61,6.69,6.69,0,*76
1505138579.44,28248,16.31,73498.0,7.61,6.61,6.69,0,*71
1505138580.68,28249,16.31,73496.8,7.61,6.69,6.73,0,*73
1505138581.9,28250,16.31,73500.0,7.59,6.69,6.73,0,*70
1505138583.16,28251,16.31,73498.8,7.61,6.39,6.39,0,*71
1505138584.42,28252,16.31,73496.8,7.61,6.35,6.47,0,*77
1505138585.68,28253,16.31,73498.0,7.61,6.51,6.61,0,*70
1505138586.87,28254,16.31,73502.3,7.63,6.33,6.33,0,*76
1505138588.09,28255,16.31,73498.3,7.63,6.39,6.39,0,*77
1505138589.36,28256,16.31,73494.8,7.61,6.47,6.47,0,*76
1505138590.61,28257,16.31,73494.0,7.61,6.61,6.69,0,*7F
1505138591.86,28258,16.31,73494.3,7.61,6.73,6.73,0,*78
1505138593.08,28259,16.31,73488.8,7.63,6.61,6.65,0,*7F
1505138594.32,28260,16.31,73492.5,7.63,6.43,6.43,0,*71
1505138595.52,28261,16.31,73494.8,7.63,6.33,6.39,0,*7A
1505138596.75,28262,16.31,73494.5,7.63,6.39,6.39,0,*73
1505138597.95,28263,16.31,73492.5,7.63,6.33,6.39,0,*78
1505138599.18,28264,16.31,73492.3,7.63,6.39,6.39,0,*75
1505138600.39,28265,16.31,73492.3,7.63,6.53,6.53,0,*74
1505138601.62,28266,16.31,73496.5,7.63,6.43,6.43,0,*77
1505138602.81,28267,16.31,73502.0,7.63,6.33,6.33,0,*76
1505138604.06,28268,16.31,73500.8,7.65,6.39,6.39,0,*7F
1505138605.3,28269,16.31,73502.5,7.61,6.29,6.35,0,*77
1505138606.49,28270,16.31,73498.0,7.63,6.33,6.33,0,*70
1505138607.72,28271,16.31,73486.8,7.61,6.29,6.39,0,*72
1505138608.99,28272,16.31,73488.5,7.61,6.35,6.35,0,*70
1505138610.22,28273,16.31,73486.0,7.61,6.13,6.11,0,*73
1505138611.41,28274,16.31,73484.3,7.63,6.29,6.33,0,*7F
1505138612.67,28275,16.31,73492.3,7.61,6.39,6.47,0,*7E
1505138613.9,28276,16.31,73486.5,7.61,6.11,6.13,0,*76
1505138615.15,28277,16.31,73490.3,7.61,6.47,6.57,0,*74
1505138616.36,28278,16.31,73492.0,7.61,6.29,6.29,0,*7A
1505138617.57,28279,16.31,73496.5,7.61,6.29,6.29,0,*7B
1505138618.83,28280,16.31,73496.5,7.61,6.35,6.35,0,*7D
1505138620.09,28281,16.31,73494.8,7.61,6.39,6.47,0,*75
1505138621.34,28282,16.31,73494.0,7.61,6.57,6.61,0,*7A
1505138622.57,28283,16.31,73498.5,7.63,6.51,6.61,0,*7F
1505138623.8,28284,16.31,73502.5,7.63,6.51,6.43,0,*78
1505138624.99,28285,16.31,73502.0,7.63,6.33,6.33,0,*7A
1505138626.24,28286,16.31,73508.5,7.61,6.13,6.13,0,*7B
1505138627.5,28287,16.31,73496.5,7.61,6.17,6.17,0,*7A
1505138628.72,28288,16.31,73484.8,7.61,6.03,6.03,0,*75
1505138629.94,28289,16.31,73492.0,7.59,6.13,6.13,0,*7F
1505138631.15,28290,16.31,73496.0,7.59,5.93,6.03,0,*7D
1505138632.37,28291,16.31,73494.5,7.59,5.77,5.77,0,*76
1505138633.58,28292,16.31,73504.5,7.61,6.29,6.25,0,*72
1505138634.77,28293,16.31,73500.5,7.59,6.29,6.25,0,*78
1505138635.97,28294,16.31,73502.3,7.59,6.17,6.25,0,*72
1505138637.21,28295,16.31,73506.8,7.61,6.29,6.39,0,*78
1505138638.47,28296,16.31,73512.0,7.61,6.35,6.35,0,*7A
1505138639.72,28297,16.31,73508.8,7.61,6.47,6.57,0,*7A
1505138640.93,28298,16.31,73514.0,7.61,6.29,6.29,0,*74
1505138642.11,28299,16.31,73516.8,7.59,6.29,6.29,0,*7E
1505138643.32,28300,16.31,73518.5,7.59,6.17,6.25,0,*7E
1505138644.53,28301,16.31,73512.3,7.61,5.99,6.03,0,*75
1505138645.74,28302,16.31,73510.5,7.61,6.25,6.25,0,*76
1505138646.95,28303,16.31,73510.0,7.59,6.29,6.35,0,*71
1505138648.16,28304,16.31,73516.0,7.59,6.29,6.35,0,*76
1505138649.36,28305,16.31,73516.3,7.59,6.11,6.13,0,*78
1505138650.58,28306,16.31,73522.8,7.61,5.99,6.03,0,*72
1505138651.76,28307,16.31,73502.3,7.59,5.99,5.99,0,*78
1505138652.97,28308,16.31,73514.8,7.59,5.89,5.99,0,*76
1505138654.15,28309,16.31,73502.0,7.59,5.99,5.99,0,*76
1505138655.33,28310,16.31,73500.0,7.59,6.11,6.11,0,*7E
1505138656.52,28311,16.31,73500.0,7.59,6.03,6.03,0,*7F
1505138657.73,28312,16.31,73502.3,7.57,6.11,6.11,0,*72
1505138658.91,28313,16.31,73502.5,7.59,5.99,5.99,0,*7D
1505138660.12,28314,16.31,73502.3,7.57,6.11,6.11,0,*74
1505138661.3,28315,16.31,73504.0,7.55,6.11,6.11,0,*77
1505138662.51,28316,16.31,73500.3,7.57,5.99,5.99,0,*76
1505138663.69,28317,16.31,73496.5,7.59,5.99,6.11,0,*7A
1505138664.91,28318,16.31,73502.3,7.57,6.11,6.13,0,*7A
1505138666.12,28319,16.31,73492.8,7.57,5.99,5.99,0,*79
1505138667.3,28320,16.31,73498.5,7.55,6.07,6.07,0,*71
1505138668.53,28321,16.31,73492.8,7.55,5.93,5.85,0,*77
1505138669.77,28322,16.31,73494.5,7.55,5.93,5.93,0,*73
1505138671.0,28323,16.31,73502.3,7.55,6.17,6.17,0,*72
1505138672.18,28324,16.31,73496.0,7.55,6.07,6.11,0,*72
1505138673.36,28325,16.31,73478.3,7.55,6.07,6.11,0,*73
1505138674.59,28326,16.31,73482.8,7.55,6.17,6.17,0,*77
1505138675.77,28327,16.31,73486.0,7.55,6.11,6.11,0,*76
1505138676.96,28328,16.31,73480.5,7.55,5.95,6.03,0,*75
1505138678.2,28329,16.31,73490.5,7.55,5.93,5.93,0,*78
1505138679.39,28330,16.31,73466.0,7.55,6.03,6.03,0,*70
1505138680.64,28331,16.31,73474.0,7.57,5.85,5.85,0,*73
1505138681.82,28332,16.31,73476.5,7.51,5.67,5.71,0,*71
1505138683.04,28333,16.31,73476.3,7.53,6.03,6.03,0,*75
1505138684.26,28334,16.31,73474.8,7.51,5.77,5.77,0,*70
1505138685.45,28335,16.31,73476.8,7.51,6.03,6.03,0,*71
1505138686.63,28336,16.31,73472.3,7.51,6.07,6.07,0,*72
1505138687.82,28337,16.31,73478.3,7.51,6.07,6.13,0,*76
1505138689.0,28338,16.31,73488.5,7.51,6.07,6.07,0,*7C
1505138690.22,28339,16.31,73496.0,7.53,6.03,6.11,0,*7C
1505138691.42,28340,16.31,73494.5,7.51,6.29,6.39,0,*72
1505138692.66,28341,16.31,73488.8,7.51,6.35,6.35,0,*72
1505138693.92,28342,16.31,73490.0,7.53,6.51,6.53,0,*71
1505138695.14,28343,16.31,73484.0,7.53,6.33,6.33,0,*72
1505138696.4,28344,16.31,73482.0,7.53,6.17,6.17,0,*75
1505138697.66,28345,16.31,73488.3,7.53,6.43,6.51,0,*77
1505138698.92,28346,16.31,73502.5,7.53,6.65,6.65,0,*77
1505138700.18,28347,16.31,73500.8,7.53,6.65,6.73,0,*71
1505138701.39,28348,16.31,73498.8,7.53,6.11,6.11,0,*79
1505138702.6,28349,16.31,73494.3,7.53,5.95,5.95,0,*78
1505138703.81,28350,16.31,73490.5,7.53,6.11,6.11,0,*70
1505138705.07,28351,16.31,73502.0,7.53,6.39,6.39,0,*71
1505138706.31,28352,16.31,73492.8,7.51,6.51,6.51,0,*70
1505138707.53,28353,16.31,73488.0,7.53,6.29,6.33,0,*78
1505138708.76,28354,16.31,73480.0,7.55,6.39,6.39,0,*72
1505138709.99,28355,16.31,73480.3,7.55,6.61,6.61,0,*73
1505138711.22,28356,16.31,73488.5,7.55,6.73,6.73,0,*70
1505138712.44,28357,16.31,73490.0,7.55,6.53,6.61,0,*70
1505138713.65,28358,16.31,73490.5,7.55,6.73,6.83,0,*71
1505138714.9,28359,16.31,73488.5,7.57,6.47,6.53,0,*78
1505138716.15,28360,16.31,73490.3,7.57,6.47,6.53,0,*72
1505138717.39,28361,16.31,73494.5,7.55,6.51,6.51,0,*74
1505138718.64,28362,16.31,73488.0,7.57,6.65,6.69,0,*79
1505138719.88,28363,16.31,73494.5,7.57,6.69,6.69,0,*74
1505138721.13,28364,16.31,73494.5,7.57,6.57,6.65,0,*72
1505138722.38,28365,16.31,73490.3,7.57,6.65,6.65,0,*72
1505138723.63,28366,16.31,73490.3,7.57,6.53,6.53,0,*71
1505138724.84,28367,16.31,73488.5,7.57,6.25,6.33,0,*77
1505138726.1,28368,16.31,73490.8,7.61,6.47,6.47,0,*7A
1505138727.33,28369,16.31,73494.5,7.59,6.47,6.57,0,*71
1505138728.57,28370,16.31,73490.8,7.59,6.35,6.35,0,*78
1505138729.83,28371,16.31,73492.5,7.61,6.47,6.51,0,*75
1505138731.05,28372,16.31,73494.3,7.59,6.57,6.57,0,*7A
1505138732.27,28373,16.31,73490.3,7.59,6.57,6.61,0,*7E
1505138733.5,28374,16.31,73492.0,7.59,6.73,6.73,0,*7C
1505138734.75,28375,16.31,73490.5,7.61,6.51,6.57,0,*70
1505138735.97,28376,16.31,73490.5,7.59,6.61,6.69,0,*76
1505138737.19,28377,16.31,73484.0,7.59,6.61,6.69,0,*77
1505138738.44,28378,16.31,73490.8,7.61,6.69,6.69,0,*7B
1505138739.69,28379,16.31,73488.0,7.61,6.73,6.73,0,*7A
1505138740.94,28380,16.31,73490.0,7.61,6.73,6.73,0,*7C
1505138742.18,28381,16.31,73490.8,7.59,6.51,6.51,0,*76
1505138743.43,28382,16.31,73494.0,7.61,6.61,6.61,0,*7E
1505138744.68,28383,16.31,73492.0,7.61,6.61,6.61,0,*7F
1505138745.93,28384,16.31,73488.8,7.61,6.61,6.61,0,*78
1505138747.15,28385,16.31,73492.5,7.59,6.61,6.61,0,*72
1505138748.42,28386,16.31,73486.3,7.61,6.51,6.47,0,*7D
1505138749.69,28387,16.31,73486.0,7.61,6.47,6.47,0,*7B
1505138750.95,28388,16.31,73494.5,7.61,6.35,6.39,0,*78
1505138752.17,28389,16.31,73488.5,7.63,6.61,6.61,0,*77
1505138753.37,28390,16.31,73490.3,7.63,6.73,6.75,0,*79
1505138754.63,28391,16.31,73488.8,7.65,6.43,6.43,0,*78
1505138755.85,28392,16.31,73488.8,7.63,6.65,6.61,0,*79
1505138757.03,28393,16.31,73486.8,7.63,6.75,6.75,0,*7C
1505138758.22,28394,16.31,73492.0,7.65,6.75,6.75,0,*7D
1505138759.44,28395,16.31,73494.0,7.63,6.53,6.61,0,*7B
1505138760.67,28396,16.31,73502.8,7.63,6.65,6.73,0,*7E
1505138761.91,28397,16.31,73498.5,7.65,6.73,6.73,0,*7E
1505138763.14,28398,16.31,73496.5,7.63,6.51,6.53,0,*75
1505138764.37,28399,16.31,73498.3,7.63,6.39,6.39,0,*76
1505138765.58,28400,16.31,73500.8,7.65,6.29,6.33,0,*7C
1505138766.83,28401,16.31,73508.8,7.65,6.39,6.39,0,*76
1505138768.08,28402,16.31,73508.0,7.65,6.51,6.61,0,*76
1505138769.3,28403,16.31,73512.8,7.65,6.07,6.13,0,*71
1505138770.51,28404,16.31,73508.8,7.63,6.33,6.39,0,*7F
1505138771.73,28405,16.31,73516.8,7.65,6.17,6.29,0,*7F
1505138772.92,28406,16.31,73510.5,7.63,6.33,6.33,0,*77
1505138774.14,28407,16.31,73502.0,7.63,5.81,5.85,0,*72
1505138775.33,28408,16.31,73500.0,7.63,6.21,6.21,0,*79
1505138776.51,28409,16.31,73502.8,7.63,6.03,6.03,0,*78
1505138777.77,28410,16.31,73482.5,7.61,5.89,5.89,0,*72
1505138779.03,28411,16.31,73490.0,7.61,5.89,5.89,0,*73
1505138780.22,28412,16.31,73492.0,7.59,6.03,5.99,0,*7B
1505138781.42,28413,16.31,73492.5,7.59,6.17,6.25,0,*7B
1505138782.61,28414,16.31,73488.3,7.59,6.03,6.11,0,*7E
1505138783.8,28415,16.31,73502.5,7.59,6.03,5.99,0,*7C
1505138784.98,28416,16.31,73498.3,7.59,5.99,5.99,0,*7F
1505138786.21,28417,16.31,73500.8,7.59,5.89,5.81,0,*76
1505138787.41,28418,16.31,73492.3,7.59,5.71,5.77,0,*77
1505138788.66,28419,16.31,73498.5,7.57,5.85,5.85,0,*7E
1505138789.86,28420,16.31,73506.5,7.57,5.99,6.07,0,*70
1505138791.06,28421,16.31,73502.8,7.57,5.99,6.07,0,*71
1505138792.27,28422,16.31,73494.5,7.55,6.03,6.17,0,*71
1505138793.5,28423,16.31,73482.8,7.57,6.11,6.13,0,*75
1505138794.7,28424,16.31,73482.3,7.57,6.11,6.21,0,*73
1505138795.93,28425,16.31,73486.0,7.57,6.11,6.13,0,*73
1505138797.11,28426,16.31,73480.8,7.55,5.95,5.95,0,*70
1505138798.31,28427,16.31,73482.3,7.57,6.11,6.11,0,*73
1505138799.52,28428,16.31,73472.5,7.57,6.21,6.21,0,*7C
1505138800.7,28429,16.31,73470.8,7.55,6.07,6.11,0,*78
1505138801.89,28430,16.31,73462.3,7.55,6.11,6.11,0,*77
1505138803.12,28431,16.31,73464.0,7.55,6.17,6.17,0,*76
1505138804.35,28432,16.31,73464.8,7.55,6.17,6.17,0,*75
1505138805.54,28433,16.31,73470.5,7.55,6.33,6.33,0,*74
1505138806.78,28434,16.31,73472.8,7.57,6.33,6.35,0,*77
1505138808.04,28435,16.31,73476.5,7.57,6.35,6.35,0,*70
1505138809.25,28436,16.31,73476.5,7.55,6.17,6.11,0,*77
1505138810.44,28437,16.31,73480.3,7.55,6.33,6.33,0,*70
1505138811.65,28438,16.31,73478.3,7.55,6.33,6.39,0,*75
1505138812.84,28439,16.31,73480.8,7.55,6.21,6.21,0,*7E
1505138814.07,28440,16.31,73480.0,7.55,6.17,6.17,0,*70
1505138815.26,28441,16.31,73484.0,7.55,6.29,6.29,0,*71
1505138816.47,28442,16.31,73486.3,7.57,6.25,6.25,0,*70
1505138817.73,28443,16.31,73482.8,7.57,6.35,6.35,0,*71
1505138818.98,28444,16.31,73484.3,7.57,6.53,6.65,0,*73
1505138820.23,28445,16.25,73476.0,7.57,6.43,6.43,0,*77
1505138821.42,28446,16.31,73480.8,7.55,6.29,6.29,0,*76
1505138822.65,28447,16.31,73478.8,7.59,6.35,6.39,0,*77
1505138823.89,28448,16.31,73478.3,7.57,6.33,6.35,0,*7C
1505138825.08,28449,16.31,73472.3,7.55,6.33,6.33,0,*79
1505138826.33,28450,16.31,73466.8,7.57,6.13,6.13,0,*73
1505138827.52,28451,16.31,73464.5,7.55,6.11,6.11,0,*70
1505138828.72,28452,16.31,73478.3,7.57,6.21,6.21,0,*71
1505138829.96,28453,16.25,73472.0,7.55,5.81,5.81,0,*72
1505138831.19,28454,16.31,73476.0,7.55,5.73,5.81,0,*78
1505138832.4,28455,16.31,73464.8,7.55,5.93,6.03,0,*7E
1505138833.59,28456,16.25,73462.3,7.55,6.21,6.29,0,*7F
1505138834.79,28457,16.31,73468.5,7.55,6.17,6.21,0,*73
1505138836.03,28458,16.31,73484.3,7.55,6.43,6.43,0,*79
1505138837.24,28459,16.31,73488.5,7.57,6.25,6.33,0,*7D
1505138838.47,28460,16.31,73490.0,7.55,5.85,5.93,0,*75
1505138839.68,28461,16.31,73486.0,7.57,5.63,5.63,0,*71
1505138840.93,28462,16.31,73498.5,7.53,5.51,5.51,0,*76
1505138842.14,28463,16.31,73472.8,7.53,5.41,5.49,0,*7F
1505138843.35,28464,16.31,73490.5,7.53,5.63,5.71,0,*73
1505138844.58,28465,16.31,73494.3,7.53,5.63,5.73,0,*70
1505138845.84,28466,16.31,73494.8,7.53,6.17,6.17,0,*72
1505138847.04,28467,16.31,73492.5,7.53,6.07,6.11,0,*74
1505138848.25,28468,16.31,73496.8,7.53,6.07,6.11,0,*7B
1505138849.43,28469,16.31,73490.0,7.55,6.07,6.07,0,*7B
1505138850.63,28470,16.31,73490.0,7.57,5.95,5.95,0,*71
1505138851.84,28471,16.31,73506.3,7.55,6.17,6.21,0,*77
1505138853.03,28472,16.31,73494.3,7.55,6.21,6.21,0,*71
1505138854.26,28473,16.31,73492.3,7.57,6.33,6.43,0,*75
1505138855.44,28474,16.31,73502.3,7.59,6.25,6.29,0,*77
1505138856.65,28475,16.31,73500.5,7.57,6.25,6.21,0,*70
1505138857.86,28476,16.31,73502.0,7.57,6.21,6.21,0,*77
1505138859.05,28477,16.31,73504.5,7.55,6.29,6.21,0,*7C
1505138860.23,28478,16.31,73506.8,7.59,6.29,6.29,0,*77
1505138861.46,28479,16.31,73502.8,7.59,6.39,6.47,0,*7F
1505138862.71,28480,16.31,73496.0,7.57,6.47,6.57,0,*7F
1505138863.95,28481,16.31,73500.5,7.59,6.35,6.39,0,*7D
1505138865.18,28482,16.31,73498.8,7.59,6.35,6.39,0,*7E
1505138866.41,28483,16.31,73502.5,7.59,6.51,6.69,0,*78
1505138867.65,28484,16.31,73500.5,7.59,6.35,6.35,0,*74
1505138868.83,28485,16.31,73496.5,7.59,6.25,6.29,0,*79
1505138870.06,28486,16.31,73496.0,7.59,6.39,6.47,0,*7F
1505138871.3,28487,16.31,73498.5,7.59,6.39,6.47,0,*7E
1505138872.56,28488,16.31,73494.0,7.61,6.39,6.47,0,*7A
1505138873.82,28489,16.31,73498.0,7.61,6.39,6.47,0,*7B
1505138875.05,28490,16.31,73498.5,7.59,6.47,6.51,0,*76
1505138876.24,28491,16.31,73502.5,7.63,6.33,6.33,0,*79
1505138877.49,28492,16.31,73500.5,7.61,6.39,6.39,0,*78
1505138878.67,28493,16.31,73504.0,7.59,6.29,6.29,0,*72
1505138879.89,28494,16.31,73504.8,7.61,5.99,6.03,0,*7E
1505138881.1,28495,16.31,73498.3,7.61,6.25,6.25,0,*7F
1505138882.35,28496,16.31,73500.8,7.61,6.17,6.17,0,*7C
1505138883.57,28497,16.31,73502.0,7.61,6.03,5.99,0,*7D
1505138884.78,28498,16.31,73498.3,7.61,6.03,6.11,0,*71
1505138885.99,28499,16.31,73492.5,7.61,5.99,5.99,0,*73
1505138887.17,28500,16.31,73494.8,7.59,6.11,6.11,0,*79
1505138888.36,28501,16.31,73492.0,7.59,6.25,6.29,0,*74
1505138889.54,28502,16.25,73488.5,7.59,6.25,6.25,0,*7B
1505138890.74,28503,16.25,73488.5,7.59,6.11,6.13,0,*78
1505138891.95,28504,16.31,73488.8,7.59,6.29,6.35,0,*70
1505138893.19,28505,16.25,73490.3,7.59,6.47,6.47,0,*7C
1505138894.41,28506,16.31,73494.5,7.59,6.57,6.57,0,*7F
1505138895.64,28507,16.31,73502.8,7.61,6.61,6.79,0,*7C
1505138896.88,28508,16.31,73498.0,7.61,6.57,6.57,0,*7A
1505138898.1,28509,16.31,73496.8,7.59,6.29,6.35,0,*7D
1505138899.3,28510,16.31,73500.8,7.61,6.11,6.11,0,*73
1505138900.51,28511,16.31,73490.0,7.59,5.99,5.93,0,*73
1505138901.72,28512,16.25,73484.0,7.59,6.13,6.03,0,*7B
1505138902.97,28513,16.31,73486.3,7.61,5.89,5.89,0,*70
1505138904.15,28514,16.31,73474.5,7.59,6.11,6.11,0,*7C
1505138905.36,28515,16.31,73482.0,7.59,6.29,6.35,0,*70
1505138906.6,28516,16.31,73480.0,7.59,6.35,6.39,0,*72
1505138907.8,28517,16.31,73482.8,7.59,6.17,6.25,0,*7E
1505138909.02,28518,16.31,73470.5,7.59,6.39,6.57,0,*78
1505138910.26,28519,16.31,73472.8,7.59,6.47,6.51,0,*76
1505138911.47,28520,16.31,73466.0,7.59,6.29,6.35,0,*76
1505138912.68,28521,16.25,73464.0,7.59,6.29,6.35,0,*77
1505138913.92,28522,16.25,73468.3,7.59,6.35,6.47,0,*7C
1505138915.11,28523,16.31,73474.0,7.59,6.03,6.11,0,*7B
1505138916.34,28524,16.31,73474.5,7.59,5.89,5.93,0,*74
1505138917.57,28525,16.25,73470.8,7.59,6.13,6.17,0,*7A
1505138918.77,28526,16.25,73468.3,7.59,6.11,6.13,0,*7F
1505138920.02,28527,16.25,73474.3,7.61,6.17,6.17,0,*77
1505138921.25,28528,16.25,73476.8,7.59,6.17,6.13,0,*77
1505138922.43,28529,16.31,73478.0,7.59,5.99,6.03,0,*72
1505138923.62,28530,16.25,73476.5,7.59,5.99,6.03,0,*7A
1505138924.84,28531,16.25,73474.3,7.59,5.81,5.81,0,*7B
1505138926.09,28532,16.31,73468.5,7.61,5.77,5.81,0,*7A
1505138927.3,28533,16.31,73478.3,7.57,6.21,6.25,0,*73
1505138928.52,28534,16.31,73466.0,7.57,6.07,6.13,0,*75
1505138929.73,28535,16.31,73486.3,7.57,6.21,6.25,0,*75
1505138930.96,28536,16.25,73478.8,7.55,5.73,5.81,0,*7D
1505138932.17,28537,16.31,73480.5,7.57,6.21,6.33,0,*70
1505138933.35,28538,16.31,73464.3,7.55,6.07,6.21,0,*7A